STARLINK-33638, 63436

Orbit data source: Space-Track

STARLINK-33638, 63436 is a payload satellite owned by SpaceX/Seattle (US) in LEO that was launched on Fri, 04 Apr 2025 UTC via an FALCON 9 launch vehicle from the Air Force Western Test Range (AFWTR). Payload-class satellites include a variety of spacecraft equipped with specific instruments for various scientific and technological missions. These include communications satellites like Starlink; space stations such as the ISS; scientific satellites like the Hubble; Earth observation satellites from companies like Planet Labs, Umbra, and HawkEye 360; GPS; miniature CubeSats for education and research; and military/defense satellites.

Loading next visibility...
Identifier
63436, 2025-069D
Orbit
LEO
Country
Flag of USUS
Related business
Manufacturer
SpaceX/Seattle
Mission
Operational Commercial Communications
Bus & Motor
STARLINK V2MO, Unknown motor
Mass
575 kg wet, ~530 kg dry
Launch date (UTC)
2025-04-04 (1 year ago)
Launch vehicle
FALCON 9
Launch site
Air Force Western Test Range (AFWTR)
Object type
Payload
Rocket body
Debris
Shape & HBR
Box + 2 Pan, 17.7 m
Radar Cross Section
36.964 m², Large (>1 m²)

Expand to show TLE details & history
Last TLE update: 11 hours ago

TLE from 11 hours ago
0 STARLINK-33638
1 63436U 25069D   26145.27156759  .00025209  00000-0  58658-3 0  9997
2 63436  53.1584 144.3560 0001066  88.4979 271.6149 15.42172925 65167
Epoch: 2026-05-25T06:31Z
TLE epoch observation values (Epoch: 2026-05-25T06:31:03.439Z)
Latitude
-0.00004°
Longitude
163.72989°
Altitude
440.581 km
Speed
7.649 km/s
True Right ascension
09h 37m 25s
True Declination
0° 00' 00"
Sunlit
Object was in daylight at epoch
Visualization orbit readout
Latitude
Unknown
Longitude
Unknown
Altitude
Unknown
Speed
Unknown
Apparent Right ascension
Unknown
Apparent Declination
Unknown
Sunlit
N/A
Visualization observer readout
Local Sidereal Time
03:06:04
Azimuth
Unknown
Elevation
Unknown
Doppler factor
Unknown
Orbital elements
Apogee altitude
440.682 km
Perigee altitude
439.229 km
Semi-major axis
6,818.093 km
Eccentricity
0.00011
Inclination
53.1584°
RAAN
144.356°
Arg. of periapsis
88.4979°
True anomaly
271.60269°
Mean anomaly
271.6149°
Eccentric anomaly
271.60879°
Mean motion
3.85522 °/min
Orbital period
93.38 mins
BSTAR
0.00058658
Loading maneuver chart data...
Computing Atmospheric mass density...
Loading historical data...
Loading historical data...
Loading historical data...
Loading historical data...
Loading historical data...
Loading historical data...
Loading historical data...

Documentation

Showing up to 5 results
|